This is the latest recevied weather packets stored in our database for station/object KN6WGU. If no packets are shown the sender has not sent any weather packets the latest 10 day(s).
| Time | Temp. | Humidity | Pressure | Rain* | Wind** | Luminosity | Snow |
|---|---|---|---|---|---|---|---|
| 1777832712 | 16.11° C | 41% | 1006.8 hPa | 0 mm | - | 176 W/m² | - |
| 1777832409 | 17.22° C | 38% | 1007 hPa | 0 mm | - | 208 W/m² | - |
| 1777832106 | 16.67° C | 38% | 1006.8 hPa | 0 mm | - | 760 W/m² | - |
| 1777831802 | 16.67° C | 40% | 1007 hPa | 0 mm | - | 765 W/m² | - |
| 1777831500 | 16.67° C | 40% | 1007.2 hPa | 0 mm | - | 756 W/m² | - |
| 1777831196 | 16.67° C | 42% | 1007.2 hPa | 0 mm | - | 744 W/m² | - |
| 1777830895 | 16.67° C | 38% | 1007.2 hPa | 0 mm | - | 782 W/m² | - |
| 1777830590 | 17.22° C | 40% | 1007.2 hPa | 0 mm | - | 786 W/m² | - |
| 1777830289 | 16.11° C | 44% | 1007.4 hPa | 0 mm | - | 738 W/m² | - |
| 1777829983 | 16.11° C | 41% | 1007.4 hPa | 0 mm | - | 790 W/m² | - |
| 1777829680 | 16.11° C | 45% | 1007.4 hPa | 0 mm | - | 389 W/m² | - |
| 1777829377 | 15.56° C | 43% | 1007.6 hPa | 0 mm | - | 479 W/m² | - |
| 1777829074 | 16.11° C | 44% | 1007.7 hPa | 0 mm | - | 108 W/m² | - |
| 1777828770 | 16.11° C | 43% | 1007.7 hPa | 0 mm | - | 156 W/m² | - |
| 1777828467 | 15.56° C | 45% | 1007.9 hPa | 0 mm | - | 302 W/m² | - |
| 1777828165 | 16.11° C | 44% | 1007.9 hPa | 0 mm | - | 191 W/m² | - |
| 1777827861 | 15.56° C | 43% | 1007.9 hPa | 0 mm | - | 509 W/m² | - |
| 1777827558 | 15.56° C | 44% | 1008 hPa | 0 mm | - | 75 W/m² | - |
| 1777827255 | 15.56° C | 43% | 1008.1 hPa | 0 mm | - | 182 W/m² | - |
| 1777826951 | 15.56° C | 42% | 1008.1 hPa | 0 mm | - | 87 W/m² | - |
| 1777826649 | 15° C | 45% | 1007.9 hPa | 0 mm | - | 69 W/m² | - |
| 1777826345 | 15° C | 46% | 1008.1 hPa | 0 mm | - | 126 W/m² | - |
| 1777826043 | 15° C | 47% | 1008.2 hPa | 0 mm | - | 64 W/m² | - |
| 1777825739 | 15° C | 48% | 1008 hPa | 0 mm | - | 65 W/m² | - |
| 1777825437 | 15° C | 44% | 1008.2 hPa | 0 mm | - | 192 W/m² | - |
* Rain latest hour (hover to see other rain measurements)
** Current wind speed in m/s (hover to see current wind gust speed)